Miscellaneous Local Product
Issued by NWS North Platte, NE

Home | Current Version | Previous Version | Graphics & Text | Print | Product List | Glossary On
Versions: 1 2 3 4 5 6 7 8 9 10 11 12 13 14 15 16 17 18 19 20 21 22 23 24 25 26 27 28 29 30 31 32 33 34 35 36 37 38 39 40 41 42 43 44 45 46 47 48 49 50
000
AXUS43 KLBF 160610
MISLBF


WESTERN AND NORTH CENTRAL NEBRASKA HOURLY WEATHER ROUNDUP
NATIONAL WEATHER SERVICE NORTH PLATTE NE
1200 AM CST SAT DEC 16 2017

NOTE: "FAIR" INDICATES FEW OR NO CLOUDS BELOW 12,000 FEET WITH NO
SIGNIFICANT WEATHER AND/OR OBSTRUCTIONS TO VISIBILITY.

NOTE: STATIONS NOT REPORTING VARIABLES SUCH AS SKY/WEATHER OR
PRESSURE ARE PROVIDED BY RAWS AND APRS NETWORKS AND ARE NOT UNDER
NATIONAL WEATHER SERVICE QUALITY CONTROL.

...OBSERVATIONS IN AND NEAR THE EASTERN PANHANDLE OF NEBRASKA...

CITY           SKY/WX    TMP DP  RH WIND       PRES   REMARKS
PINE RIDGE     CLOUDY    43  20  39 NW5       29.72R
GORDON         FAIR      37  23  56 SW8       29.72R WCI  30
CHADRON        CLOUDY    33  18  53 W7        29.74R WCI  27
ALLIANCE       CLOUDY    34  12  40 W8        29.74R WCI  27
SIDNEY         CLOUDY    36   7  29 NW10      29.78F WCI  28
CRESCENT LAKE    N/A     44  11  26 W6          N/A
$$

...OBSERVATIONS IN NORTHERN NEBRASKA AND FAR SOUTHERN SOUTH DAKOTA...

CITY           SKY/WX    TMP DP  RH WIND       PRES   REMARKS
WINNER         FAIR      42  25  50 W9        29.66S
VALENTINE      PTCLDY    35  25  66 W7        29.70R WCI  29
THEDFORD       CLOUDY    39  19  45 W9        29.72S WCI  32
AINSWORTH      CLOUDY    39  26  58 NW6       29.69S WCI  35
O`NEILL        CLEAR     37  26  64 W8        29.69S WCI  30
ORD            CLOUDY    30  22  72 CALM      29.70S
BROKEN BOW     CLOUDY    36  21  54 CALM      29.72S
VALENTINE NWR    N/A     40  21  46 W6          N/A
HALSEY           N/A     39  15  38 SW5         N/A
BUTTE            N/A     38  27  64 W3          N/A
EWING            N/A     36  26  66 W5          N/A  WCI  32
$$

...OBSERVATIONS IN SOUTHWEST NEBRASKA AND FAR NORTHEAST COLORADO...

CITY           SKY/WX    TMP DP  RH WIND       PRES   REMARKS
WRAY           FAIR      32   9  37 W8        29.78F WCI  25
HOLYOKE        FAIR      28  12  50 W9        29.77F WCI  20
IMPERIAL       CLOUDY    27   9  46 VRB3      29.77S
OGALLALA       CLOUDY    29  18  61 W7        29.76S WCI  22
NORTH PLATTE   CLOUDY    25  17  72 W6        29.76R WCI  18
MCCOOK         CLOUDY    37  13  37 W13       29.77F WCI  29
LEXINGTON      CLOUDY    31  15  50 CALM      29.75S
STAPLETON        N/A     35  17  47 CALM        N/A
GOTHENBURG       N/A     41  13  32 W5          N/A
CALLAWAY         N/A     40  18  41 W10         N/A  WCI  33
$$

...OBSERVATIONS IN CENTRAL LINCOLN COUNTY AREA...

CITY           SKY/WX    TMP DP  RH WIND       PRES   REMARKS
N.P. AIRPORT   CLOUDY    25  17  72 W6        29.76R WCI  18
N.P. DOWNTOWN    N/A     30  18  60 CALM        N/A
N.P. SOUTHEAST   N/A     32  17  53 CALM        N/A
N.P. HILLCREST   N/A     37  18  46 NW5         N/A  WCI  33
$$

...SOME OBSERVATIONS FROM AROUND THE REGION...

CITY           SKY/WX    TMP DP  RH WIND       PRES   REMARKS
DENVER         CLOUDY    42  12  29 SW8       29.81F
GRAND JUNCTION CLOUDY    25   8  48 E6        30.06F WCI  18
LARAMIE        CLOUDY    32  11  41 SW24      29.85F WCI  19
CHEYENNE       CLOUDY    45   7  21 W23       29.82S
CASPER         CLOUDY    40  13  33 SW23      29.79S WCI  30
BISMARCK       CLOUDY    38  33  82 W6        29.61R WCI  33
RAPID CITY     CLOUDY    37  15  40 N5        29.69R WCI  33
PIERRE         PTCLDY    37  24  59 SW6       29.64R WCI  32
SIOUX FALLS    CLOUDY    37  28  70 SW3       29.62F
OMAHA          CLEAR     35  23  61 S10       29.73F WCI  27
GRAND ISLAND   CLEAR     38  19  46 W13       29.73F WCI  30
SCOTTSBLUFF    CLOUDY    43   7  22 NW9       29.76R
KANSAS CITY    CLOUDY    39  25  57 SW16      29.90F WCI  30
HILL CITY      CLOUDY    37  14  38 W8        29.81F WCI  31
WICHITA        CLEAR     38  25  59 S12       29.95F WCI  30
DODGE CITY     CLOUDY    36  17  46 SW15      29.89S WCI  27
OKLAHOMA CITY  CLEAR     38  22  52 S12       30.06F WCI  30
DALLAS         CLOUDY    40  26  57 S10       30.17F WCI  33
AMARILLO       CLEAR     36  22  56 SW16      30.01S WCI  26
$$




USA.gov is the U.S. government's official web portal to all federal, state and local government web resources and services.